Location: Wavehorne
(51.0500°N, 0.8333°E)
Time: 07:18:16
(UTC+00:00)

NOSS 2-2 (C) - Pass Details

Date: 24 October 2021
Orbit: 444 x 1761 km, 63.3° (Epoch: 06 December)

Event Time Altitude Azimuth Distance (km) Brightness Sun altitude
Exits shadow 02:03:11 18° 91° (E) 2,089 6.6 -41.3°
Drops below altitude 10° 02:05:05 10° 100° (E) 2,752 7.2 -41.0°
Sets 02:08:22 0° 108° (ESE) 3,945 8.0 -40.6°
